Weather History for Newport, RI

Change the Weather History Date:

Monday, June 10, 2013

  Actual Average Record
Temperature  
Mean Temperature 63 °F -  
Max Temperature 71 °F 72 °F 91 °F (1959)
Min Temperature 55 °F 55 °F 46 °F (1988)
Degree Days  
Heating Degree Days 2    
Growing Degree Days 13 (Base 50)    
Moisture  
Dew Point 58 °F    
Average Humidity 85    
Maximum Humidity 96    
Minimum Humidity 63    
Precipitation  
Precipitation 0.71 in - - ()
Sea Level Pressure  
Sea Level Pressure 30.10 in    
Wind  
Wind Speed 6 mph (East)    
Max Wind Speed 14 mph    
Max Gust Speed 21 mph    
Visibility 7 miles    
Events Rain    
Averages and records for this station are not official NWS values.
T = Trace of Precipitation, MM = Missing Value Source: NWS Daily Summary

Daily Weather History Graph

Daily Weather History Graph

Search for Another Location

Airport:

Trip Planner

Search our weather history database for the weather conditions in past years. The results will help you decide how hot, cold, wet, or windy it might be!

Date:

Astronomy

Jun. 10, 2013 Rise Set
Actual Time 5:10 AM EDT 8:18 PM EDT
Civil Twilight 4:37 AM EDT 8:52 PM EDT
Nautical Twilight 3:53 AM EDT 9:35 PM EDT
Astronomical Twilight 3:02 AM EDT 10:27 PM EDT
Moon 6:57 AM EDT (6/10) 9:42 PM EDT (6/10)
Length of Visible Light 16h 15m
Length of Day
15h 07m
Waxing Crescent, 4% of the Moon is Illuminated
Jun 10
Waxing Crescent
Jun 16
First Quarter
Jun 23
Full
Jun 30
Last Quarter
Jul 8
New

Hourly Weather History & Observations

Time (EDT) Temp. Dew Point Humidity Pressure Visibility Wind Dir Wind Speed Gust Speed Precip Events Conditions
12:53 AM 66.0 °F 57.9 °F 75% 30.17 in 10.0 mi West 6.9 mph - N/A   Clear
1:53 AM 61.0 °F 55.9 °F 83% 30.17 in 10.0 mi NNE 3.5 mph - N/A   Clear
2:53 AM 59.0 °F 55.9 °F 90% 30.17 in 10.0 mi Calm Calm - N/A   Clear
3:53 AM 57.9 °F 55.9 °F 93% 30.16 in 10.0 mi Calm Calm - N/A   Clear
4:53 AM 55.9 °F 54.0 °F 93% 30.17 in 8.0 mi Calm Calm - N/A   Clear
5:53 AM 57.0 °F 55.9 °F 96% 30.18 in 9.0 mi Calm Calm - N/A   Clear
6:53 AM 63.0 °F 60.1 °F 90% 30.18 in 10.0 mi Calm Calm - N/A   Clear
7:53 AM 69.1 °F 57.9 °F 68% 30.19 in 10.0 mi NNE 3.5 mph - N/A   Clear
8:53 AM 71.1 °F 57.9 °F 63% 30.17 in 10.0 mi ENE 8.1 mph - N/A   Clear
9:53 AM 70.0 °F 57.9 °F 65% 30.19 in 10.0 mi East 4.6 mph - N/A   Scattered Clouds
10:53 AM 70.0 °F 57.0 °F 63% 30.18 in 10.0 mi East 4.6 mph - N/A   Mostly Cloudy
11:53 AM 69.1 °F 57.9 °F 68% 30.18 in 10.0 mi ESE 5.8 mph - 0.00 in Rain Light Rain
12:53 PM 68.0 °F 59.0 °F 73% 30.17 in 10.0 mi East 5.8 mph - 0.00 in Rain Light Rain
1:53 PM 68.0 °F 57.9 °F 70% 30.16 in 10.0 mi East 10.4 mph - 0.00 in   Mostly Cloudy
2:53 PM 68.0 °F 59.0 °F 73% 30.15 in 10.0 mi East 5.8 mph - 0.00 in Rain Light Rain
3:53 PM 66.9 °F 57.9 °F 73% 30.13 in 10.0 mi East 8.1 mph - 0.00 in Rain Light Rain
4:53 PM 64.9 °F 60.1 °F 84% 30.11 in 10.0 mi East 8.1 mph - 0.00 in Rain Light Rain
5:53 PM 63.0 °F 60.1 °F 90% 30.09 in 10.0 mi ENE 5.8 mph - 0.00 in Rain Light Rain
6:53 PM 62.1 °F 60.1 °F 93% 30.08 in 7.0 mi East 9.2 mph - 0.01 in Rain Light Rain
7:37 PM 60.8 °F 59.0 °F 94% 30.07 in 2.0 mi East 6.9 mph - 0.07 in Rain Heavy Rain
7:53 PM 61.0 °F 59.0 °F 93% 30.06 in 4.0 mi East 6.9 mph - 0.09 in Rain Light Rain
8:16 PM 60.8 °F 59.0 °F 94% 30.04 in 6.0 mi East 8.1 mph - 0.01 in Rain Rain
8:28 PM 60.8 °F 57.2 °F 88% 30.04 in 6.0 mi East 11.5 mph - 0.03 in Rain Rain
8:53 PM 60.1 °F 57.9 °F 93% 30.03 in 2.0 mi East 9.2 mph - 0.14 in Rain Heavy Rain
9:04 PM 60.8 °F 57.2 °F 88% 30.02 in 2.5 mi East 10.4 mph - 0.04 in Rain Rain
9:12 PM 59.0 °F 57.2 °F 94% 30.02 in 3.0 mi East 9.2 mph - 0.08 in Rain Heavy Rain
9:34 PM 59.0 °F 57.2 °F 94% 30.01 in 4.0 mi East 9.2 mph - 0.14 in Rain Rain
9:45 PM 59.0 °F 57.2 °F 94% 30.01 in 2.5 mi East 9.2 mph 17.3 mph 0.20 in Rain Heavy Rain
9:53 PM 59.0 °F 57.9 °F 96% 30.00 in 2.5 mi East 9.2 mph - 0.24 in Rain Heavy Rain
10:09 PM 59.0 °F 57.2 °F 94% 30.01 in 3.0 mi East 10.4 mph 19.6 mph 0.05 in Rain Rain
10:53 PM 59.0 °F 57.9 °F 96% 30.01 in 4.0 mi ESE 8.1 mph - 0.18 in Rain Rain
11:53 PM 59.0 °F 57.9 °F 96% 29.96 in 4.0 mi East 13.8 mph 20.7 mph 0.05 in Rain Light Rain